Location: Clay (historical)
(35.1476°N, 89.8179°W)
Time: 02:26:02
(UTC+00:00)

ATLAS 3B R/B - Pass Details

Date: 18 February 2026
Orbit: 936 x 1257 km, 63.8° (Epoch: 6 March)

Event Time Altitude Azimuth Distance (km) Brightness Sun altitude
Rises 12:07:45 0° 201° (SSW) 3,956 5.5 -7.7°
Reaches altitude 10° 12:10:22 10° 199° (SSW) 3,043 5.0 -7.2°
Maximum altitude 12:17:40 72° 117° (ESE) 1,265 3.4 -5.7°
Drops below altitude 10° 12:25:27 10° 35° (NE) 3,226 5.6 -4.1°
Sets 12:28:18 0° 33° (NNE) 4,209 6.1 -3.6°
